STARLINK-34071 (63910 NORAD) Tracking and Keplerian Element Data

This shows tracking and keplerian element data for the satellite.

Feedback or suggestion? Click here.




ElementValue
Catalog63910
NameSTARLINK-34071
Epoch Orbit3560
Epoch Day354.10339095
Epoch Year2025
RAAN265.8966
Inclination43.0028
Eccentricity0.0002454
Argument of Perigee250.6529
Mean Anonmoly109.4058
Mean Motion15.2760779
Decay Rate0.00018462
L11 63910U 25095W 25354.10339095 .00018462 00000+0 67816-3 0 9990
L22 63910 43.0028 265.8966 0002454 250.6529 109.4058 15.27607790 35609



Live tracking and technical data element details for STARLINK-34071 (NORAD 63910). STARLINK-34071 can be tracked NOW for your location showing map with azimuth and elevation plus other details from your city location.







IsCatalogInMostPopularTable: catalog: 63910, numindb: 7
Update: records affected: 1



GetName: 63910 STARLINK-34071

Hit Count: updated at: Wed, 15 Apr 2026 01:40:36 GMT